Window Rock, AZ

12:21 AM MST on February 26, 2017 (GMT -0700)
Window Rock

Weather History for KRQE - February, 2012

Change the Weather History Date:

Sunday, February 5, 2012

  Actual Average Record
Temperature  
Mean Temperature 35 °F -  
Max Temperature 43 °F 44 °F 66 °F (1963)
Min Temperature 27 °F 15 °F -11 °F (1985)
Degree Days  
Heating Degree Days 30    
Moisture  
Dew Point 19 °F    
Average Humidity 56    
Maximum Humidity 72    
Minimum Humidity 40    
Precipitation  
Precipitation 0.00 in - - ()
Sea Level Pressure  
Sea Level Pressure 30.09 in    
Wind  
Wind Speed 4 mph (East)    
Max Wind Speed 9 mph    
Max Gust Speed 18 mph    
Visibility 10 miles    
Events      
Averages and records for this station are not official NWS values.
T = Trace of Precipitation, MM = Missing Value Source: NWS Daily Summary

Daily Weather History Graph

Daily Weather History Graph

Search for Another Location

Airport or City:

Trip Planner

Search our weather history database for the weather conditions in past years. The results will help you decide how hot, cold, wet, or windy it might be!

Date:

Astronomy

Feb. 05, 2012 Rise Set
Actual Time 7:13 AM MST 5:47 PM MST
Civil Twilight 6:46 AM MST 6:14 PM MST
Nautical Twilight 6:16 AM MST 6:44 PM MST
Astronomical Twilight 5:46 AM MST 7:14 PM MST
Moon 3:52 PM MST (2/5) 5:23 AM MST (2/5)
Length of Visible Light 11h 27m
Length of Day
10h 34m
Waxing Gibbous, 95% of the Moon is Illuminated
Feb 5
Waxing Gibbous
Feb 7
Full
Feb 14
Last Quarter
Feb 21
New
Feb 29
First Quarter

Hourly Weather History & Observations

Time (MST) Temp. Windchill Dew Point Humidity Pressure Visibility Wind Dir Wind Speed Gust Speed Precip Events Conditions
12:53 AM 28.9 °F 25.2 °F 19.0 °F 67% 30.13 in 10.0 mi Variable 3.5 mph - N/A   Clear
1:53 AM 28.0 °F 24.2 °F 17.1 °F 63% 30.15 in 10.0 mi ESE 3.5 mph - N/A   Overcast
2:53 AM 28.0 °F 24.2 °F 17.1 °F 63% 30.14 in 10.0 mi ESE 3.5 mph - N/A   Overcast
3:53 AM 27.0 °F - 17.1 °F 66% 30.13 in 10.0 mi Calm Calm - N/A   Overcast
4:53 AM 28.0 °F - 17.1 °F 63% 30.13 in 10.0 mi Calm Calm - N/A   Overcast
5:53 AM 27.0 °F 23.0 °F 17.1 °F 66% 30.16 in 10.0 mi East 3.5 mph - N/A   Overcast
6:53 AM 27.0 °F 23.0 °F 17.1 °F 66% 30.17 in 10.0 mi ESE 3.5 mph - N/A   Overcast
7:53 AM 27.0 °F 21.6 °F 17.1 °F 66% 30.19 in 10.0 mi East 4.6 mph - N/A   Overcast
8:53 AM 30.9 °F 27.5 °F 18.0 °F 59% 30.18 in 10.0 mi ENE 3.5 mph - N/A   Overcast
9:53 AM 34.0 °F 27.2 °F 19.0 °F 54% 30.17 in 10.0 mi East 8.1 mph - N/A   Clear
10:53 AM 37.0 °F 32.4 °F 19.0 °F 48% 30.15 in 10.0 mi Variable 5.8 mph - N/A   Clear
11:53 AM 39.0 °F 33.4 °F 19.0 °F 45% 30.11 in 10.0 mi East 8.1 mph - N/A   Overcast
12:53 PM 41.0 °F 38.0 °F 19.0 °F 41% 30.08 in 10.0 mi Variable 4.6 mph - N/A   Overcast
1:53 PM 41.0 °F 38.0 °F 19.0 °F 41% 30.05 in 10.0 mi Variable 4.6 mph - N/A   Overcast
2:53 PM 43.0 °F 38.2 °F 19.9 °F 40% 30.03 in 10.0 mi East 8.1 mph - N/A   Overcast
3:53 PM 39.9 °F 35.1 °F 19.9 °F 45% 30.03 in 10.0 mi ENE 6.9 mph - N/A   Overcast
4:53 PM 39.0 °F 32.8 °F 19.9 °F 46% 30.02 in 10.0 mi East 9.2 mph 16.1 mph N/A   Overcast
5:53 PM 37.0 °F 30.4 °F 19.9 °F 50% 30.03 in 10.0 mi ENE 9.2 mph 18.4 mph N/A   Overcast
6:53 PM 36.0 °F 30.3 °F 19.9 °F 52% 30.03 in 10.0 mi East 6.9 mph - N/A   Overcast
7:53 PM 35.1 °F 28.6 °F 19.9 °F 54% 30.05 in 10.0 mi ENE 8.1 mph - N/A   Overcast
8:53 PM 33.1 °F 30.0 °F 19.9 °F 59% 30.05 in 10.0 mi East 3.5 mph - N/A   Overcast
9:53 PM 34.0 °F 31.0 °F 19.9 °F 56% 30.03 in 10.0 mi SE 3.5 mph - N/A   Overcast
10:53 PM 30.9 °F - 19.9 °F 64% 30.02 in 10.0 mi Calm Calm - N/A   Mostly Cloudy
11:53 PM 27.0 °F 23.0 °F 19.0 °F 72% 30.03 in 10.0 mi NNW 3.5 mph - N/A   Overcast